This demonstration page uses our WeatherBlox Daily Observations layout. Learn more.

Left ArrowRight Arrow

39.51506, -84.39828

Hourly Observations for June 2, 2017

Temp ( °F °C ) Dew Point ( °F °C ) Humidity (%) Winds ( mph kmh ) Pressure ( in mb ) Visibility ( mi km ) Precip ( " mm )
12:15 am 00:15 Clear 57 13.8 49 9.5 75 75 Calm 30.06 1018 10 16 0.00 0.00
12:35 am 00:35 Clear 57 13.8 49 9.7 76 76 Calm 30.06 1018 10 16 0.00 0.00
12:55 am 00:55 Clear 57 13.8 50 10 78 78 Calm 30.06 1018 10 16 0.00 0.00
1:15 am 01:15 Clear 57 13.8 50 10 78 78 Calm 30.09 1019 10 16 0.00 0.00
1:35 am 01:35 Clear 58 14.5 49 9.2 71 71 Calm 30.09 1019 10 16 0.00 0.00
1:55 am 01:55 Clear 55 12.5 47 8.6 77 77 W 3 6 30.09 1019 10 16 0.00 0.00
2:15 am 02:15 Clear 55 12.5 48 8.8 78 78 Calm 30.09 1019 10 16 0.00 0.00
2:35 am 02:35 Clear 57 13.8 49 9.6 76 76 Calm 30.09 1019 10 16 0.00 0.00
2:55 am 02:55 Clear 55 12.7 47 8.4 75 75 Calm 30.09 1019 10 16 0.00 0.00
3:15 am 03:15 Clear 55 12.5 48 9 79 79 Calm 30.09 1019 10 16 0.00 0.00
3:35 am 03:35 Clear 55 12.5 48 9.1 80 80 Calm 30.09 1019 10 16 0.00 0.00
3:55 am 03:55 Clear 55 12.5 48 9.1 80 80 Calm 30.09 1019 10 16 0.00 0.00
4:15 am 04:15 Clear 52 11.1 46 8 81 81 Calm 30.09 1019 10 16 0.00 0.00
4:35 am 04:35 Clear 52 11 46 7.8 81 81 Calm 30.09 1019 10 16 0.00 0.00
4:55 am 04:55 Clear 52 11 46 7.8 81 81 Calm 30.09 1019 10 16 0.00 0.00
5:15 am 05:15 Clear 54 12.4 49 9.3 82 82 Calm 30.09 1019 10 16 0.00 0.00
5:35 am 05:35 Clear 54 12.4 48 9.1 80 80 Calm 30.12 1020 10 16 0.00 0.00
5:55 am 05:55 Clear 51 10.7 46 7.8 82 82 Calm 30.12 1020 10 16 0.00 0.00
6:15 am 06:15 Sunny 52 11 46 8 82 82 Calm 30.12 1020 10 16 0.00 0.00
6:35 am 06:35 Sunny 52 11 46 8 82 82 Calm 30.12 1020 10 16 0.00 0.00
6:55 am 06:55 Sunny 51 10.7 46 7.7 82 82 Calm 30.12 1020 10 16 0.00 0.00
7:15 am 07:15 Sunny 55 12.5 49 9.3 81 81 Calm 30.15 1021 10 16 0.00 0.00
7:35 am 07:35 Sunny 55 12.5 49 9.3 81 81 Calm 30.15 1021 10 16 0.00 0.00
7:55 am 07:55 Sunny 57 13.8 51 10.5 81 81 Calm 30.15 1021 10 16 0.00 0.00
8:15 am 08:15 Sunny 60 15.3 53 11.5 78 78 Calm 30.15 1021 10 16 0.00 0.00
8:35 am 08:35 Sunny 61 16 52 11.3 74 74 Calm 30.15 1021 10 16 0.00 0.00
8:55 am 08:55 Sunny 62 16.8 51 10.4 66 66 Calm 30.12 1020 10 16 0.00 0.00
9:15 am 09:15 Sunny 65 18.2 50 10 59 59 Calm 30.12 1020 10 16 0.00 0.00
9:35 am 09:35 Sunny 69 20.8 48 8.7 46 46 Calm 30.12 1020 10 16 0.00 0.00
9:55 am 09:55 Sunny 69 20.8 46 7.9 44 44 Calm 30.12 1020 10 16 0.00 0.00
10:15 am 10:15 Sunny 70 21.2 46 7.9 42 42 Calm 30.12 1020 10 16 0.00 0.00
10:35 am 10:35 Sunny 74 23.6 49 9.2 40 40 Calm 30.12 1020 10 16 0.00 0.00
10:55 am 10:55 Sunny 74 23.6 45 7.2 35 35 Calm 30.12 1020 10 16 0.00 0.00
11:15 am 11:15 Sunny 74 23.6 43 6.1 32 32 Calm 30.09 1019 10 16 0.00 0.00
11:35 am 11:35 Sunny 77 25.1 42 5.5 28 28 Calm 30.09 1019 10 16 0.00 0.00
11:55 am 11:55 Sunny 77 25.1 37 2.9 24 24 SW 5 7 30.09 1019 10 16 0.00 0.00
12:15 pm 12:15 Sunny 77 25.1 34 0.9 20 20 SSW 3 6 30.09 1019 10 16 0.00 0.00
12:35 pm 12:35 Sunny 78 25.3 32 0.2 19 19 Calm 30.09 1019 10 16 0.00 0.00
12:55 pm 12:55 Sunny 80 26.5 35 1.8 20 20 Calm 30.09 1019 10 16 0.00 0.00
1:15 pm 13:15 Sunny 80 26.5 36 2.4 21 21 WNW 7 11 30.09 1019 10 16 0.00 0.00
1:35 pm 13:35 Sunny 80 26.5 31 -0.3 17 17 Calm 30.09 1019 10 16 0.00 0.00
1:55 pm 13:55 Sunny 80 26.6 34 1.2 19 19 WNW 5 7 30.09 1019 10 16 0.00 0.00
2:15 pm 14:15 Sunny 81 27.2 34 1.3 19 19 WNW 3 6 30.09 1019 10 16 0.00 0.00
2:35 pm 14:35 Sunny 81 27.3 34 1.2 18 18 W 7 11 30.09 1019 10 16 0.00 0.00
2:55 pm 14:55 Sunny 81 27.2 29 -1.4 15 15 WSW 7 11 30.06 1018 10 16 0.00 0.00
3:15 pm 15:15 Sunny 81 27.4 28 -2.4 14 14 SW 3 6 30.06 1018 10 16 0.00 0.00
3:35 pm 15:35 Sunny 82 28 28 -2 14 14 SE 5 7 30.06 1018 10 16 0.00 0.00
3:55 pm 15:55 Sunny 82 28 25 -4.1 12 12 W 7 11 30.06 1018 10 16 0.00 0.00
4:15 pm 16:15 Sunny 82 28 21 -6.3 10 10 Calm 30.06 1018 10 16 0.00 0.00
4:35 pm 16:35 Sunny 82 28 24 -4.4 12 12 WNW 3 6 30.06 1018 10 16 0.00 0.00
4:55 pm 16:55 Sunny 82 28 28 -2.4 13 13 WSW 6 9 30.03 1017 10 16 0.00 0.00
5:15 pm 17:15 Sunny 82 28 27 -2.8 13 13 WNW 7 11 30.03 1017 10 16 0.00 0.00
5:35 pm 17:35 Sunny 82 28 23 -5.1 11 11 Calm 30.03 1017 10 16 0.00 0.00
5:55 pm 17:55 Sunny 82 28 27 -2.8 13 13 W 6 9 30.03 1017 10 16 0.00 0.00
6:15 pm 18:15 Sunny 82 28 23 -5.1 11 11 WSW 3 6 30.03 1017 10 16 0.00 0.00
6:35 pm 18:35 Sunny 82 28 31 -0.7 15 15 W 6 9 30.03 1017 10 16 0.00 0.00
6:55 pm 18:55 Sunny 81 27.2 33 0.4 17 17 W 5 7 30.03 1017 10 16 0.00 0.00
7:15 pm 19:15 Sunny 81 27.2 32 -0.1 17 17 WSW 6 9 30.03 1017 10 16 0.00 0.00
7:35 pm 19:35 Sunny 81 27.2 33 0.5 18 18 Calm 30.03 1017 10 16 0.00 0.00
8:15 pm 20:15 Sunny 77 25.1 51 10.5 40 40 Calm 30.03 1017 10 16 0.00 0.00
8:35 pm 20:35 Sunny 73 23 55 12.6 52 52 Calm 30.03 1017 10 16 0.00 0.00
8:55 pm 20:55 Sunny 69 20.8 53 11.8 57 57 Calm 30.03 1017 10 16 0.00 0.00
9:15 pm 21:15 Clear 69 20.8 55 13 61 61 Calm 30.03 1017 10 16 0.00 0.00
9:35 pm 21:35 Clear 69 20.3 56 13.3 64 64 Calm 30.03 1017 10 16 0.00 0.00
9:55 pm 21:55 Clear 65 18.6 52 11.2 62 62 Calm 30.03 1017 10 16 0.00 0.00
10:15 pm 22:15 Clear 62 16.9 52 11 68 68 Calm 30.03 1017 10 16 0.00 0.00
10:35 pm 22:35 Clear 62 16.9 51 10.8 67 67 Calm 30.06 1018 10 16 0.00 0.00
10:55 pm 22:55 Clear 62 16.5 51 10.4 67 67 N 3 6 30.06 1018 10 16 0.00 0.00
11:15 pm 23:15 Clear 61 16.2 50 10.2 68 68 Calm 30.06 1018 10 16 0.00 0.00
11:35 pm 23:35 Clear 60 15.6 50 10.1 70 70 Calm 30.09 1019 10 16 0.00 0.00
11:55 pm 23:55 Clear 60 15.3 51 10.3 72 72 N 3 6 30.09 1019 10 16 0.00 0.00

Powered by AerisWeather